User: anonymous   Login
Location: Bushey
(51.6333°N, 0.3667°W)
Time: 21:43:30
(UTC+00:00)
Language:

Meteor 1-14 Rocket - Orbit

View from above orbital plane
View from above orbital plane
View from above satellite
View from above satellite

Ground track
Ground track

The orbit data is extracted from the following two-line orbital elements,

1  6393U 73015B   21134.65523153  .00000005  00000-0 -43906-5 0  9991
2  6393  81.2578  12.3903 0057693 223.4680 136.1933 14.05034608467449
Epoch (UTC): 14 May 2021 15:43:32
Eccentricity: 0.0057693
inclination: 81.2578°
perigee height: 834 km
apogee height: 918 km
right ascension of ascending node: 12.3903°
argument of perigee: 223.4680°
revolutions per day: 14.05034608
mean anomaly at epoch: 136.1933°
orbit number at epoch: 46744

The dashed part of the orbit path shows where the satellite is in the earth's shadow,  

DLR